Wetterdaten: Dienstag, 28.04.2015
Datum Zeit Auen-Temp. Temp gefhlt Luftfeuchte Luftdruck Regen Wind Richtung Richtung Taupunkt Windben
28.04.2015 00:00 12,6 C 12,6 C 75 % 1002,0 hPa 0,0 mm 0,0 km/h (0 Bft) W-SW 247 8,3 C 0,0 km/h (0 Bft)
28.04.2015 00:05 12,5 C 12,5 C 75 % 1002,0 hPa 0,0 mm 0,3 km/h (0 Bft) SW 225 8,2 C 0,0 km/h (0 Bft)
28.04.2015 00:10 12,5 C 12,4 C 75 % 1002,0 hPa 0,0 mm 0,3 km/h (0 Bft) SW 225 8,2 C 0,0 km/h (0 Bft)
28.04.2015 00:15 12,5 C 12,4 C 76 % 1002,0 hPa 0,0 mm 0,3 km/h (0 Bft) W 270 8,4 C 3,4 km/h (1 Bft)
28.04.2015 00:20 12,5 C 12,4 C 76 % 1002,0 hPa 0,0 mm 1,0 km/h (0 Bft) W 270 8,4 C 0,0 km/h (0 Bft)
28.04.2015 00:25 12,5 C 12,4 C 76 % 1002,0 hPa 0,0 mm 2,1 km/h (1 Bft) S-SW 202 8,4 C 8,0 km/h (2 Bft)
28.04.2015 00:30 12,6 C 12,5 C 76 % 1002,0 hPa 0,0 mm 2,6 km/h (1 Bft) S 180 8,5 C 4,4 km/h (1 Bft)
28.04.2015 00:35 12,5 C 12,4 C 76 % 1002,2 hPa 0,0 mm 1,6 km/h (1 Bft) SO 135 8,4 C 8,3 km/h (2 Bft)
28.04.2015 00:40 12,4 C 12,3 C 77 % 1002,2 hPa 0,0 mm 0,5 km/h (0 Bft) SO 135 8,5 C 0,0 km/h (0 Bft)
28.04.2015 00:45 12,2 C 12,1 C 77 % 1002,2 hPa 0,0 mm 0,0 km/h (0 Bft) SO 135 8,3 C 0,0 km/h (0 Bft)
28.04.2015 00:50 12,1 C 12,0 C 76 % 1002,2 hPa 0,0 mm 0,0 km/h (0 Bft) S-SW 202 8,0 C 0,0 km/h (0 Bft)
28.04.2015 00:55 12,1 C 12,0 C 76 % 1002,2 hPa 0,0 mm 0,0 km/h (0 Bft) W-SW 247 8,0 C 0,0 km/h (0 Bft)
28.04.2015 01:00 12,1 C 12,0 C 76 % 1002,2 hPa 0,0 mm 0,0 km/h (0 Bft) W-SW 247 8,0 C 0,0 km/h (0 Bft)
28.04.2015 01:05 12,1 C 12,0 C 76 % 1002,2 hPa 0,0 mm 0,5 km/h (0 Bft) W 270 8,0 C 4,4 km/h (1 Bft)
28.04.2015 01:10 12,1 C 12,1 C 76 % 1002,2 hPa 0,0 mm 0,5 km/h (0 Bft) W 270 8,0 C 0,0 km/h (0 Bft)
28.04.2015 01:15 12,1 C 12,1 C 77 % 1002,2 hPa 0,0 mm 0,3 km/h (0 Bft) SW 225 8,2 C 0,0 km/h (0 Bft)
28.04.2015 01:20 12,2 C 12,1 C 77 % 1002,2 hPa 0,0 mm 0,3 km/h (0 Bft) W 270 8,3 C 0,0 km/h (0 Bft)
28.04.2015 01:25 12,2 C 12,2 C 77 % 1002,2 hPa 0,0 mm 2,3 km/h (1 Bft) W-NW 292 8,3 C 11,1 km/h (2 Bft)
28.04.2015 01:30 12,2 C 12,2 C 78 % 1002,2 hPa 0,0 mm 4,4 km/h (1 Bft) NW 315 8,5 C 9,3 km/h (2 Bft)
28.04.2015 01:35 12,1 C 12,1 C 78 % 1002,4 hPa 0,0 mm 6,0 km/h (2 Bft) W 270 8,4 C 5,2 km/h (1 Bft)
28.04.2015 01:40 12,0 C 11,9 C 78 % 1002,4 hPa 0,0 mm 5,2 km/h (1 Bft) W-NW 292 8,3 C 5,2 km/h (1 Bft)
28.04.2015 01:45 11,8 C 11,7 C 78 % 1002,4 hPa 0,0 mm 4,4 km/h (1 Bft) W 270 8,1 C 7,8 km/h (2 Bft)
28.04.2015 01:50 11,8 C 11,6 C 78 % 1002,4 hPa 0,0 mm 3,6 km/h (1 Bft) W-SW 247 8,1 C 0,0 km/h (0 Bft)
28.04.2015 01:55 11,7 C 11,5 C 78 % 1002,5 hPa 0,0 mm 2,1 km/h (1 Bft) SW 225 8,0 C 2,8 km/h (1 Bft)
28.04.2015 02:00 11,7 C 11,5 C 78 % 1002,5 hPa 0,0 mm 1,0 km/h (0 Bft) NW 315 8,0 C 6,0 km/h (2 Bft)
28.04.2015 02:05 11,6 C 11,4 C 78 % 1002,5 hPa 0,0 mm 2,6 km/h (1 Bft) NW 315 7,9 C 4,1 km/h (1 Bft)
28.04.2015 02:10 11,6 C 11,3 C 78 % 1002,5 hPa 0,0 mm 3,4 km/h (1 Bft) W-NW 292 7,9 C 3,4 km/h (1 Bft)
28.04.2015 02:15 11,5 C 11,3 C 79 % 1002,6 hPa 0,0 mm 3,4 km/h (1 Bft) NW 315 8,0 C 6,7 km/h (2 Bft)
28.04.2015 02:20 11,5 C 11,3 C 79 % 1002,6 hPa 0,0 mm 3,4 km/h (1 Bft) W-NW 292 8,0 C 6,0 km/h (2 Bft)
28.04.2015 02:25 11,4 C 11,3 C 79 % 1002,6 hPa 0,0 mm 2,6 km/h (1 Bft) W 270 7,9 C 3,6 km/h (1 Bft)
28.04.2015 02:30 11,4 C 11,3 C 79 % 1002,6 hPa 0,0 mm 1,8 km/h (1 Bft) NW 315 7,9 C 0,0 km/h (0 Bft)
28.04.2015 02:35 11,4 C 11,3 C 79 % 1002,6 hPa 0,0 mm 0,8 km/h (0 Bft) N-NW 337 7,9 C 0,0 km/h (0 Bft)
28.04.2015 02:40 11,4 C 11,3 C 79 % 1002,6 hPa 0,0 mm 0,3 km/h (0 Bft) W-SW 247 7,9 C 0,0 km/h (0 Bft)
28.04.2015 02:45 11,3 C 11,2 C 79 % 1002,6 hPa 0,0 mm 0,3 km/h (0 Bft) W-SW 247 7,8 C 2,6 km/h (1 Bft)
28.04.2015 02:50 11,2 C 11,1 C 81 % 1002,6 hPa 1,4 mm 2,1 km/h (1 Bft) W-SW 247 8,1 C 16,3 km/h (3 Bft)
28.04.2015 02:55 10,8 C 10,7 C 81 % 1002,8 hPa 2,1 mm 3,1 km/h (1 Bft) S 180 7,7 C 2,8 km/h (1 Bft)
28.04.2015 03:00 10,4 C 10,3 C 83 % 1002,8 hPa 1,4 mm 4,9 km/h (1 Bft) S-SW 202 7,6 C 6,2 km/h (2 Bft)
28.04.2015 03:05 10,4 C 10,3 C 83 % 1002,8 hPa 0,7 mm 3,6 km/h (1 Bft) W-SW 247 7,6 C 0,0 km/h (0 Bft)
28.04.2015 03:10 10,3 C 10,2 C 84 % 1002,8 hPa 0,0 mm 2,8 km/h (1 Bft) NW 315 7,7 C 10,6 km/h (2 Bft)
28.04.2015 03:15 10,2 C 10,1 C 85 % 1002,8 hPa 0,0 mm 5,2 km/h (1 Bft) NW 315 7,8 C 8,0 km/h (2 Bft)
28.04.2015 03:20 10,1 C 9,9 C 86 % 1002,8 hPa 0,0 mm 7,5 km/h (2 Bft) W-SW 247 7,9 C 5,7 km/h (1 Bft)
28.04.2015 03:25 10,1 C 10,0 C 86 % 1002,8 hPa 0,0 mm 6,7 km/h (2 Bft) NW 315 7,9 C 9,1 km/h (2 Bft)
28.04.2015 03:30 10,1 C 10,0 C 86 % 1002,8 hPa 0,0 mm 5,7 km/h (1 Bft) NW 315 7,9 C 7,0 km/h (2 Bft)
28.04.2015 03:35 10,1 C 10,0 C 86 % 1002,8 hPa 0,0 mm 5,2 km/h (1 Bft) W 270 7,9 C 6,7 km/h (2 Bft)
28.04.2015 03:40 10,0 C 9,9 C 87 % 1002,8 hPa 0,0 mm 5,4 km/h (1 Bft) W-NW 292 7,9 C 10,4 km/h (2 Bft)
28.04.2015 03:45 10,0 C 9,9 C 87 % 1002,8 hPa 0,0 mm 6,0 km/h (2 Bft) S 180 7,9 C 8,0 km/h (2 Bft)
28.04.2015 03:50 10,0 C 9,9 C 87 % 1002,8 hPa 0,0 mm 6,0 km/h (2 Bft) W-SW 247 7,9 C 8,0 km/h (2 Bft)
28.04.2015 03:55 9,9 C 9,8 C 88 % 1003,3 hPa 1,4 mm 6,5 km/h (2 Bft) W 270 8,0 C 7,3 km/h (2 Bft)
28.04.2015 04:00 9,9 C 9,7 C 88 % 1003,3 hPa 1,4 mm 7,3 km/h (2 Bft) W 270 8,0 C 9,6 km/h (2 Bft)
28.04.2015 04:05 9,8 C 9,7 C 89 % 1003,3 hPa 0,7 mm 6,2 km/h (2 Bft) W-SW 247 8,1 C 18,6 km/h (3 Bft)
28.04.2015 04:10 9,8 C 9,7 C 88 % 1003,3 hPa 0,0 mm 4,7 km/h (1 Bft) W-SW 247 7,9 C 11,4 km/h (2 Bft)
28.04.2015 04:15 9,8 C 9,7 C 89 % 1003,2 hPa 0,7 mm 3,6 km/h (1 Bft) W 270 8,1 C 10,4 km/h (2 Bft)
28.04.2015 04:20 9,7 C 9,6 C 89 % 1003,2 hPa 0,7 mm 5,7 km/h (1 Bft) W-SW 247 8,0 C 8,3 km/h (2 Bft)
28.04.2015 04:25 9,7 C 9,6 C 89 % 1003,2 hPa 0,7 mm 5,2 km/h (1 Bft) NW 315 8,0 C 0,0 km/h (0 Bft)
28.04.2015 04:30 9,7 C 9,6 C 89 % 1003,2 hPa 0,0 mm 4,4 km/h (1 Bft) N-NW 337 8,0 C 7,8 km/h (2 Bft)
28.04.2015 04:35 9,6 C 9,5 C 89 % 1003,3 hPa 0,7 mm 3,9 km/h (1 Bft) W-NW 292 7,9 C 10,9 km/h (2 Bft)
28.04.2015 04:40 9,4 C 9,3 C 89 % 1003,3 hPa 0,0 mm 6,5 km/h (2 Bft) W-NW 292 7,7 C 14,0 km/h (3 Bft)
28.04.2015 04:45 9,4 C 9,3 C 89 % 1003,3 hPa 0,0 mm 6,0 km/h (2 Bft) W 270 7,7 C 6,5 km/h (2 Bft)
28.04.2015 04:50 9,3 C 9,2 C 89 % 1003,3 hPa 0,0 mm 6,0 km/h (2 Bft) W 270 7,6 C 6,2 km/h (2 Bft)
28.04.2015 04:55 9,3 C 9,2 C 89 % 1003,3 hPa 0,7 mm 5,7 km/h (1 Bft) W 270 7,6 C 3,6 km/h (1 Bft)
28.04.2015 05:00 9,2 C 9,1 C 89 % 1003,3 hPa 0,0 mm 4,7 km/h (1 Bft) S-SO 157 7,5 C 6,5 km/h (2 Bft)
28.04.2015 05:05 9,1 C 9,0 C 89 % 1003,3 hPa 0,0 mm 5,7 km/h (1 Bft) W-SW 247 7,4 C 3,6 km/h (1 Bft)
28.04.2015 05:10 9,0 C 8,9 C 89 % 1003,3 hPa 0,0 mm 6,5 km/h (2 Bft) W 270 7,3 C 9,1 km/h (2 Bft)
28.04.2015 05:15 9,0 C 8,8 C 89 % 1003,6 hPa 0,0 mm 6,5 km/h (2 Bft) W-SW 247 7,3 C 11,4 km/h (2 Bft)
28.04.2015 05:20 8,9 C 8,8 C 89 % 1003,6 hPa 0,0 mm 6,5 km/h (2 Bft) NW 315 7,2 C 10,4 km/h (2 Bft)
28.04.2015 05:25 8,9 C 8,8 C 89 % 1003,6 hPa 0,0 mm 5,7 km/h (1 Bft) NW 315 7,2 C 4,4 km/h (1 Bft)
28.04.2015 05:30 8,9 C 8,8 C 89 % 1003,6 hPa 0,0 mm 3,6 km/h (1 Bft) W-NW 292 7,2 C 0,0 km/h (0 Bft)
28.04.2015 05:35 8,9 C 8,8 C 89 % 1003,6 hPa 0,0 mm 2,1 km/h (1 Bft) W 270 7,2 C 2,6 km/h (1 Bft)
28.04.2015 05:40 8,9 C 8,8 C 89 % 1003,6 hPa 0,0 mm 1,0 km/h (0 Bft) SW 225 7,2 C 4,1 km/h (1 Bft)
28.04.2015 05:45 8,8 C 8,7 C 89 % 1003,6 hPa 0,7 mm 0,8 km/h (0 Bft) W 270 7,1 C 3,1 km/h (1 Bft)
28.04.2015 05:50 8,8 C 8,7 C 89 % 1003,6 hPa 0,0 mm 1,3 km/h (1 Bft) SW 225 7,1 C 0,0 km/h (0 Bft)
28.04.2015 05:55 8,8 C 8,7 C 89 % 1003,8 hPa 0,0 mm 1,6 km/h (1 Bft) NW 315 7,1 C 0,0 km/h (0 Bft)
28.04.2015 06:00 8,9 C 8,8 C 89 % 1003,8 hPa 0,0 mm 1,0 km/h (0 Bft) W 270 7,2 C 3,4 km/h (1 Bft)
28.04.2015 06:05 8,9 C 8,8 C 89 % 1003,8 hPa 0,0 mm 0,5 km/h (0 Bft) W-SW 247 7,2 C 0,0 km/h (0 Bft)
28.04.2015 06:10 8,8 C 8,7 C 89 % 1003,8 hPa 0,0 mm 0,3 km/h (0 Bft) W-SW 247 7,1 C 0,0 km/h (0 Bft)
28.04.2015 06:15 8,8 C 8,7 C 89 % 1003,8 hPa 0,0 mm 0,0 km/h (0 Bft) W-SW 247 7,1 C 0,0 km/h (0 Bft)
28.04.2015 06:20 8,8 C 8,8 C 84 % 1003,8 hPa 0,0 mm 0,0 km/h (0 Bft) SW 225 6,2 C 0,0 km/h (0 Bft)
28.04.2015 06:25 8,9 C 8,8 C 89 % 1003,8 hPa 0,0 mm 0,0 km/h (0 Bft) W-SW 247 7,2 C 0,0 km/h (0 Bft)
28.04.2015 06:30 8,9 C 8,8 C 89 % 1003,8 hPa 0,0 mm 0,0 km/h (0 Bft) W-SW 247 7,2 C 0,0 km/h (0 Bft)
28.04.2015 06:35 8,9 C 8,8 C 89 % 1004,2 hPa 0,0 mm 0,0 km/h (0 Bft) W-SW 247 7,2 C 0,0 km/h (0 Bft)
28.04.2015 06:40 8,9 C 8,8 C 89 % 1004,2 hPa 0,7 mm 0,0 km/h (0 Bft) W-SW 247 7,2 C 0,0 km/h (0 Bft)
28.04.2015 06:45 8,9 C 8,8 C 89 % 1004,2 hPa 0,0 mm 0,5 km/h (0 Bft) W 270 7,2 C 4,4 km/h (1 Bft)
28.04.2015 06:50 8,9 C 8,9 C 84 % 1004,2 hPa 0,0 mm 1,8 km/h (1 Bft) W-SW 247 6,3 C 4,4 km/h (1 Bft)
28.04.2015 06:55 9,0 C 8,9 C 89 % 1004,6 hPa 0,0 mm 3,6 km/h (1 Bft) W 270 7,3 C 10,6 km/h (2 Bft)
28.04.2015 07:00 9,0 C 8,9 C 89 % 1004,6 hPa 0,7 mm 6,0 km/h (2 Bft) SW 225 7,3 C 7,5 km/h (2 Bft)
28.04.2015 07:05 9,0 C 8,8 C 90 % 1004,6 hPa 0,0 mm 8,3 km/h (2 Bft) S-SW 202 7,4 C 11,9 km/h (2 Bft)
28.04.2015 07:10 9,0 C 8,8 C 90 % 1004,6 hPa 0,7 mm 7,8 km/h (2 Bft) W-SW 247 7,4 C 15,3 km/h (3 Bft)
28.04.2015 07:15 8,9 C 8,7 C 90 % 1005,2 hPa 0,0 mm 8,3 km/h (2 Bft) W 270 7,4 C 25,1 km/h (4 Bft)
28.04.2015 07:20 8,9 C 8,5 C 90 % 1005,2 hPa 0,0 mm 10,6 km/h (2 Bft) NW 315 7,4 C 18,1 km/h (3 Bft)
28.04.2015 07:25 8,7 C 8,4 C 90 % 1005,2 hPa 1,4 mm 13,2 km/h (3 Bft) S-SO 157 7,2 C 30,8 km/h (5 Bft)
28.04.2015 07:30 8,4 C 8,1 C 90 % 1005,2 hPa 0,0 mm 13,2 km/h (3 Bft) W 270 6,9 C 21,2 km/h (4 Bft)
28.04.2015 07:35 8,3 C 7,9 C 90 % 1005,6 hPa 0,7 mm 13,5 km/h (3 Bft) W-SW 247 6,8 C 11,9 km/h (2 Bft)
28.04.2015 07:40 8,0 C 7,6 C 90 % 1005,6 hPa 0,0 mm 14,8 km/h (3 Bft) W-NW 292 6,5 C 11,9 km/h (2 Bft)
28.04.2015 07:45 7,7 C 7,3 C 90 % 1005,6 hPa 0,0 mm 15,3 km/h (3 Bft) W 270 6,2 C 31,1 km/h (5 Bft)
28.04.2015 07:50 7,4 C 6,9 C 89 % 1005,6 hPa 0,7 mm 16,1 km/h (3 Bft) W 270 5,7 C 21,5 km/h (4 Bft)
28.04.2015 07:55 7,2 C 6,7 C 89 % 1006,7 hPa 0,0 mm 18,6 km/h (3 Bft) W-SW 247 5,5 C 36,5 km/h (5 Bft)
28.04.2015 08:00 7,0 C 6,4 C 89 % 1006,7 hPa 0,7 mm 18,9 km/h (3 Bft) W 270 5,3 C 18,1 km/h (3 Bft)
28.04.2015 08:05 6,8 C 6,2 C 89 % 1006,7 hPa 0,0 mm 16,3 km/h (3 Bft) W 270 5,1 C 18,4 km/h (3 Bft)
28.04.2015 08:10 6,8 C 6,2 C 89 % 1006,7 hPa 0,7 mm 14,0 km/h (3 Bft) W-SW 247 5,1 C 20,5 km/h (4 Bft)
28.04.2015 08:15 6,6 C 6,1 C 89 % 1007,7 hPa 0,0 mm 14,2 km/h (3 Bft) W-NW 292 4,9 C 37,0 km/h (5 Bft)
28.04.2015 08:20 6,5 C 6,0 C 89 % 1007,7 hPa 0,7 mm 15,8 km/h (3 Bft) W-NW 292 4,8 C 22,5 km/h (4 Bft)
28.04.2015 08:25 6,3 C 5,7 C 88 % 1007,7 hPa 0,0 mm 16,6 km/h (3 Bft) S 180 4,5 C 12,7 km/h (3 Bft)
28.04.2015 08:30 6,3 C 5,7 C 88 % 1007,7 hPa 0,0 mm 16,8 km/h (3 Bft) W-SW 247 4,5 C 17,1 km/h (3 Bft)
28.04.2015 08:35 6,2 C 5,6 C 88 % 1008,2 hPa 0,0 mm 17,6 km/h (3 Bft) NW 315 4,4 C 39,6 km/h (6 Bft)
28.04.2015 08:40 6,1 C 5,4 C 88 % 1008,2 hPa 0,7 mm 19,2 km/h (3 Bft) W-NW 292 4,3 C 22,8 km/h (4 Bft)
28.04.2015 08:45 6,1 C 5,4 C 87 % 1008,2 hPa 0,0 mm 17,6 km/h (3 Bft) W-SW 247 4,1 C 17,9 km/h (3 Bft)
28.04.2015 08:50 6,0 C 5,4 C 88 % 1008,2 hPa 0,0 mm 16,1 km/h (3 Bft) W-SW 247 4,2 C 17,6 km/h (3 Bft)
28.04.2015 08:55 6,0 C 5,1 C 88 % 1008,8 hPa 0,0 mm 15,5 km/h (3 Bft) W-SW 247 4,2 C 31,8 km/h (5 Bft)
28.04.2015 09:00 6,0 C 5,1 C 88 % 1008,8 hPa 0,7 mm 15,8 km/h (3 Bft) W-SW 247 4,2 C 15,5 km/h (3 Bft)
28.04.2015 09:05 6,0 C 5,5 C 84 % 1008,8 hPa 0,0 mm 12,9 km/h (3 Bft) W-SW 247 3,5 C 12,4 km/h (3 Bft)
28.04.2015 09:10 6,0 C 5,6 C 84 % 1008,8 hPa 0,0 mm 12,7 km/h (3 Bft) S 180 3,5 C 25,9 km/h (4 Bft)
28.04.2015 09:15 6,0 C 5,6 C 84 % 1009,1 hPa 0,0 mm 13,7 km/h (3 Bft) W 270 3,5 C 10,9 km/h (2 Bft)
28.04.2015 09:20 5,9 C 5,4 C 87 % 1009,1 hPa 0,0 mm 14,8 km/h (3 Bft) W 270 3,9 C 19,2 km/h (3 Bft)
28.04.2015 09:25 5,8 C 5,3 C 85 % 1009,1 hPa 0,0 mm 16,1 km/h (3 Bft) W-NW 292 3,5 C 22,3 km/h (4 Bft)
28.04.2015 09:30 5,7 C 5,0 C 84 % 1009,1 hPa 0,0 mm 15,0 km/h (3 Bft) W-SW 247 3,2 C 11,7 km/h (2 Bft)
28.04.2015 09:35 5,7 C 5,3 C 84 % 1009,7 hPa 0,0 mm 14,0 km/h (3 Bft) SW 225 3,2 C 9,3 km/h (2 Bft)
28.04.2015 09:40 5,7 C 5,2 C 84 % 1009,7 hPa 0,0 mm 10,6 km/h (2 Bft) W-NW 292 3,2 C 8,8 km/h (2 Bft)
28.04.2015 09:45 5,6 C 5,3 C 84 % 1009,7 hPa 0,0 mm 9,3 km/h (2 Bft) N-NO 22 3,1 C 13,2 km/h (3 Bft)
28.04.2015 09:50 5,6 C 5,2 C 84 % 1009,7 hPa 0,0 mm 9,8 km/h (2 Bft) W 270 3,1 C 12,9 km/h (3 Bft)
28.04.2015 09:55 5,5 C 5,1 C 84 % 1009,9 hPa 0,0 mm 13,2 km/h (3 Bft) W 270 3,0 C 22,0 km/h (4 Bft)
28.04.2015 10:00 5,5 C 5,1 C 84 % 1009,9 hPa 0,0 mm 12,4 km/h (3 Bft) W 270 3,0 C 9,8 km/h (2 Bft)
28.04.2015 10:05 5,5 C 5,0 C 84 % 1009,9 hPa 0,7 mm 12,4 km/h (3 Bft) W-SW 247 3,0 C 18,1 km/h (3 Bft)
28.04.2015 10:10 5,5 C 5,1 C 84 % 1009,9 hPa 0,0 mm 15,5 km/h (3 Bft) W-SW 247 3,0 C 22,5 km/h (4 Bft)
28.04.2015 10:15 5,5 C 5,1 C 84 % 1010,6 hPa 0,0 mm 16,1 km/h (3 Bft) SW 225 3,0 C 25,6 km/h (4 Bft)
28.04.2015 10:20 5,5 C 5,2 C 84 % 1010,6 hPa 0,0 mm 14,0 km/h (3 Bft) W-SW 247 3,0 C 9,1 km/h (2 Bft)
28.04.2015 10:25 5,6 C 5,3 C 84 % 1010,6 hPa 0,0 mm 13,2 km/h (3 Bft) W-NW 292 3,1 C 30,0 km/h (5 Bft)
28.04.2015 10:30 5,4 C 5,1 C 84 % 1010,6 hPa 0,0 mm 14,2 km/h (3 Bft) W-NW 292 2,9 C 15,5 km/h (3 Bft)
28.04.2015 10:35 5,3 C 4,9 C 84 % 1011,1 hPa 0,0 mm 15,8 km/h (3 Bft) W-SW 247 2,8 C 20,7 km/h (4 Bft)
28.04.2015 10:40 5,1 C 4,7 C 83 % 1011,1 hPa 0,0 mm 14,0 km/h (3 Bft) SW 225 2,5 C 9,6 km/h (2 Bft)
28.04.2015 10:45 5,0 C 4,5 C 83 % 1011,1 hPa 0,0 mm 14,8 km/h (3 Bft) W 270 2,4 C 39,9 km/h (6 Bft)
28.04.2015 10:50 4,9 C 4,4 C 83 % 1011,1 hPa 0,0 mm 15,3 km/h (3 Bft) W 270 2,3 C 15,3 km/h (3 Bft)
28.04.2015 10:55 4,9 C 4,4 C 83 % 1011,4 hPa 0,0 mm 16,6 km/h (3 Bft) W 270 2,3 C 8,5 km/h (2 Bft)
28.04.2015 11:00 4,9 C 4,4 C 83 % 1011,4 hPa 0,0 mm 14,0 km/h (3 Bft) NW 315 2,3 C 18,6 km/h (3 Bft)
28.04.2015 11:05 4,7 C 4,3 C 83 % 1011,4 hPa 0,7 mm 13,5 km/h (3 Bft) W 270 2,1 C 18,4 km/h (3 Bft)
28.04.2015 11:10 4,7 C 4,2 C 83 % 1011,4 hPa 0,0 mm 12,2 km/h (2 Bft) W-SW 247 2,1 C 16,1 km/h (3 Bft)
28.04.2015 11:15 4,6 C 4,4 C 83 % 1011,8 hPa 0,0 mm 12,4 km/h (3 Bft) W 270 2,0 C 19,9 km/h (4 Bft)
28.04.2015 11:20 4,7 C 4,4 C 83 % 1011,8 hPa 0,0 mm 12,4 km/h (3 Bft) SW 225 2,1 C 8,0 km/h (2 Bft)
28.04.2015 11:25 4,7 C 4,3 C 83 % 1011,8 hPa 0,0 mm 11,9 km/h (2 Bft) W-SW 247 2,1 C 23,0 km/h (4 Bft)
28.04.2015 11:30 4,7 C 4,5 C 83 % 1011,8 hPa 0,0 mm 13,7 km/h (3 Bft) W 270 2,1 C 36,0 km/h (5 Bft)
28.04.2015 11:35 4,7 C 4,4 C 83 % 1012,2 hPa 0,0 mm 16,3 km/h (3 Bft) W 270 2,1 C 30,8 km/h (5 Bft)
28.04.2015 11:40 4,7 C 4,4 C 83 % 1012,2 hPa 0,0 mm 15,3 km/h (3 Bft) W-SW 247 2,1 C 26,4 km/h (4 Bft)
28.04.2015 11:45 4,7 C 4,5 C 83 % 1012,2 hPa 0,0 mm 12,7 km/h (3 Bft) W-NW 292 2,1 C 14,2 km/h (3 Bft)
28.04.2015 11:50 4,9 C 4,4 C 83 % 1012,2 hPa 0,7 mm 12,9 km/h (3 Bft) W-SW 247 2,3 C 24,3 km/h (4 Bft)
28.04.2015 11:55 4,9 C 4,7 C 83 % 1012,6 hPa 0,0 mm 12,4 km/h (3 Bft) W 270 2,3 C 26,9 km/h (4 Bft)
28.04.2015 12:00 5,0 C 4,6 C 83 % 1012,6 hPa 0,0 mm 11,9 km/h (2 Bft) W-SW 247 2,4 C 22,0 km/h (4 Bft)
28.04.2015 12:05 4,9 C 4,7 C 84 % 1012,6 hPa 0,0 mm 12,9 km/h (3 Bft) W-SW 247 2,4 C 18,4 km/h (3 Bft)
28.04.2015 12:10 5,0 C 4,7 C 83 % 1012,6 hPa 0,0 mm 14,2 km/h (3 Bft) W 270 2,4 C 25,9 km/h (4 Bft)
28.04.2015 12:15 5,0 C 4,8 C 83 % 1012,8 hPa 0,0 mm 13,2 km/h (3 Bft) W 270 2,4 C 16,3 km/h (3 Bft)
28.04.2015 12:20 5,0 C 4,7 C 83 % 1012,8 hPa 0,0 mm 12,2 km/h (2 Bft) SW 225 2,4 C 33,4 km/h (5 Bft)
28.04.2015 12:25 5,0 C 4,7 C 83 % 1012,8 hPa 0,0 mm 12,7 km/h (3 Bft) W-SW 247 2,4 C 20,7 km/h (4 Bft)
28.04.2015 12:30 5,1 C 5,0 C 83 % 1012,8 hPa 0,0 mm 13,2 km/h (3 Bft) S 180 2,5 C 13,5 km/h (3 Bft)
28.04.2015 12:35 5,2 C 5,1 C 84 % 1013,0 hPa 0,7 mm 12,4 km/h (3 Bft) SW 225 2,7 C 15,0 km/h (3 Bft)
28.04.2015 12:40 5,3 C 5,1 C 84 % 1013,0 hPa 0,0 mm 11,7 km/h (2 Bft) W 270 2,8 C 8,8 km/h (2 Bft)
28.04.2015 12:45 5,3 C 5,1 C 84 % 1013,0 hPa 0,0 mm 11,9 km/h (2 Bft) W-NW 292 2,8 C 14,2 km/h (3 Bft)
28.04.2015 12:50 5,4 C 5,3 C 84 % 1013,0 hPa 0,0 mm 11,4 km/h (2 Bft) SW 225 2,9 C 14,2 km/h (3 Bft)
28.04.2015 12:55 5,4 C 5,2 C 84 % 1013,5 hPa 0,0 mm 11,9 km/h (2 Bft) W 270 2,9 C 22,5 km/h (4 Bft)
28.04.2015 13:00 5,4 C 5,2 C 84 % 1013,5 hPa 0,0 mm 11,7 km/h (2 Bft) W-SW 247 2,9 C 19,2 km/h (3 Bft)
28.04.2015 13:05 5,4 C 5,3 C 84 % 1013,5 hPa 0,0 mm 13,2 km/h (3 Bft) W-SW 247 2,9 C 24,6 km/h (4 Bft)
28.04.2015 13:10 5,5 C 5,2 C 84 % 1013,5 hPa 0,0 mm 13,2 km/h (3 Bft) W-SW 247 3,0 C 9,6 km/h (2 Bft)
28.04.2015 13:15 5,6 C 5,4 C 84 % 1013,8 hPa 0,0 mm 12,2 km/h (2 Bft) W-NW 292 3,1 C 19,7 km/h (3 Bft)
28.04.2015 13:20 5,7 C 5,4 C 84 % 1013,8 hPa 0,0 mm 10,9 km/h (2 Bft) W-SW 247 3,2 C 11,7 km/h (2 Bft)
28.04.2015 13:25 5,6 C 5,3 C 84 % 1013,8 hPa 0,0 mm 11,7 km/h (2 Bft) S-SO 157 3,1 C 9,8 km/h (2 Bft)
28.04.2015 13:30 5,6 C 5,3 C 84 % 1013,8 hPa 0,0 mm 10,6 km/h (2 Bft) W-SW 247 3,1 C 23,0 km/h (4 Bft)
28.04.2015 13:35 5,6 C 5,3 C 84 % 1014,2 hPa 0,0 mm 9,8 km/h (2 Bft) W-SW 247 3,1 C 6,2 km/h (2 Bft)
28.04.2015 13:40 5,5 C 5,0 C 83 % 1014,2 hPa 0,0 mm 10,6 km/h (2 Bft) W 270 2,8 C 7,0 km/h (2 Bft)
28.04.2015 13:45 5,5 C 5,2 C 83 % 1014,2 hPa 0,0 mm 9,3 km/h (2 Bft) W 270 2,8 C 17,9 km/h (3 Bft)
28.04.2015 13:50 5,5 C 5,1 C 84 % 1014,2 hPa 0,0 mm 8,8 km/h (2 Bft) SW 225 3,0 C 15,0 km/h (3 Bft)
28.04.2015 13:55 5,4 C 5,0 C 84 % 1014,2 hPa 0,7 mm 9,8 km/h (2 Bft) N 360 2,9 C 8,8 km/h (2 Bft)
28.04.2015 14:00 5,5 C 5,1 C 84 % 1014,2 hPa 0,0 mm 11,1 km/h (2 Bft) W 270 3,0 C 13,5 km/h (3 Bft)
28.04.2015 14:05 5,7 C 5,5 C 84 % 1014,2 hPa 0,0 mm 10,4 km/h (2 Bft) W 270 3,2 C 23,3 km/h (4 Bft)
28.04.2015 14:10 5,9 C 6,0 C 84 % 1014,2 hPa 0,0 mm 8,5 km/h (2 Bft) W-SW 247 3,4 C 12,9 km/h (3 Bft)
28.04.2015 14:15 5,9 C 6,2 C 84 % 1014,6 hPa 0,0 mm 7,8 km/h (2 Bft) W 270 3,4 C 9,8 km/h (2 Bft)
28.04.2015 14:20 5,9 C 6,0 C 84 % 1014,6 hPa 0,0 mm 7,3 km/h (2 Bft) W 270 3,4 C 6,0 km/h (2 Bft)
28.04.2015 14:25 5,8 C 5,7 C 83 % 1014,6 hPa 0,0 mm 7,8 km/h (2 Bft) SW 225 3,1 C 7,8 km/h (2 Bft)
28.04.2015 14:30 5,7 C 5,6 C 83 % 1014,6 hPa 0,0 mm 7,8 km/h (2 Bft) NW 315 3,0 C 7,5 km/h (2 Bft)
28.04.2015 14:35 5,7 C 5,4 C 83 % 1014,8 hPa 0,0 mm 9,3 km/h (2 Bft) W 270 3,0 C 16,6 km/h (3 Bft)
28.04.2015 14:40 5,8 C 5,6 C 83 % 1014,8 hPa 0,0 mm 10,4 km/h (2 Bft) W 270 3,1 C 12,2 km/h (2 Bft)
28.04.2015 14:45 5,9 C 5,8 C 83 % 1014,8 hPa 0,0 mm 8,3 km/h (2 Bft) W 270 3,2 C 13,5 km/h (3 Bft)
28.04.2015 14:50 5,8 C 5,4 C 83 % 1014,8 hPa 0,0 mm 10,1 km/h (2 Bft) W 270 3,1 C 18,4 km/h (3 Bft)
28.04.2015 14:55 5,7 C 5,2 C 83 % 1015,2 hPa 0,0 mm 11,9 km/h (2 Bft) W-SW 247 3,0 C 14,5 km/h (3 Bft)
28.04.2015 15:00 5,7 C 5,2 C 83 % 1015,2 hPa 0,0 mm 11,7 km/h (2 Bft) W-SW 247 3,0 C 22,0 km/h (4 Bft)
28.04.2015 15:05 5,6 C 5,1 C 83 % 1015,2 hPa 0,0 mm 12,2 km/h (2 Bft) W 270 2,9 C 8,5 km/h (2 Bft)
28.04.2015 15:10 5,6 C 5,1 C 83 % 1015,2 hPa 0,0 mm 10,9 km/h (2 Bft) W-SW 247 2,9 C 6,7 km/h (2 Bft)
28.04.2015 15:15 5,6 C 5,2 C 83 % 1015,6 hPa 0,0 mm 8,0 km/h (2 Bft) NW 315 2,9 C 9,6 km/h (2 Bft)
28.04.2015 15:20 5,5 C 4,9 C 84 % 1015,6 hPa 0,0 mm 9,3 km/h (2 Bft) W-NW 292 3,0 C 16,1 km/h (3 Bft)
28.04.2015 15:25 5,3 C 4,6 C 84 % 1015,6 hPa 0,0 mm 10,9 km/h (2 Bft) W-NW 292 2,8 C 10,9 km/h (2 Bft)
28.04.2015 15:30 5,2 C 4,5 C 83 % 1015,6 hPa 0,0 mm 12,2 km/h (2 Bft) W-NW 292 2,6 C 20,5 km/h (4 Bft)
28.04.2015 15:35 5,2 C 4,4 C 82 % 1015,9 hPa 0,0 mm 12,2 km/h (2 Bft) W-NW 292 2,4 C 12,9 km/h (3 Bft)
28.04.2015 15:40 5,2 C 4,4 C 82 % 1015,9 hPa 0,0 mm 11,7 km/h (2 Bft) W-SW 247 2,4 C 18,9 km/h (3 Bft)
28.04.2015 15:45 5,2 C 4,7 C 82 % 1015,9 hPa 0,0 mm 9,1 km/h (2 Bft) N-NO 22 2,4 C 5,7 km/h (1 Bft)
28.04.2015 15:50 5,2 C 4,7 C 82 % 1015,9 hPa 0,0 mm 9,1 km/h (2 Bft) W-NW 292 2,4 C 12,2 km/h (2 Bft)
28.04.2015 15:55 5,2 C 4,5 C 83 % 1016,1 hPa 0,0 mm 9,6 km/h (2 Bft) W 270 2,6 C 13,2 km/h (3 Bft)
28.04.2015 16:00 5,1 C 4,5 C 83 % 1016,1 hPa 0,0 mm 8,5 km/h (2 Bft) SO 135 2,5 C 8,0 km/h (2 Bft)
28.04.2015 16:05 5,0 C 4,6 C 83 % 1016,1 hPa 0,0 mm 6,0 km/h (2 Bft) W-SW 247 2,4 C 3,6 km/h (1 Bft)
28.04.2015 16:10 5,0 C 4,7 C 82 % 1016,1 hPa 0,0 mm 5,4 km/h (1 Bft) W 270 2,2 C 11,7 km/h (2 Bft)
28.04.2015 16:15 4,9 C 4,4 C 84 % 1016,3 hPa 0,0 mm 7,3 km/h (2 Bft) W-NW 292 2,4 C 12,2 km/h (2 Bft)
28.04.2015 16:20 4,9 C 4,2 C 85 % 1016,3 hPa 0,0 mm 8,8 km/h (2 Bft) W-NW 292 2,6 C 12,9 km/h (3 Bft)
28.04.2015 16:25 4,7 C 4,2 C 82 % 1016,3 hPa 0,0 mm 7,5 km/h (2 Bft) NW 315 1,9 C 6,0 km/h (2 Bft)
28.04.2015 16:30 4,7 C 4,3 C 82 % 1016,3 hPa 0,0 mm 7,0 km/h (2 Bft) W 270 1,9 C 9,8 km/h (2 Bft)
28.04.2015 16:35 4,6 C 4,3 C 82 % 1016,6 hPa 0,0 mm 6,2 km/h (2 Bft) W-SW 247 1,8 C 7,3 km/h (2 Bft)
28.04.2015 16:40 4,7 C 4,2 C 84 % 1016,6 hPa 0,0 mm 6,2 km/h (2 Bft) SW 225 2,2 C 14,8 km/h (3 Bft)
28.04.2015 16:45 4,7 C 4,2 C 84 % 1016,6 hPa 0,0 mm 6,7 km/h (2 Bft) W-SW 247 2,2 C 7,8 km/h (2 Bft)
28.04.2015 16:50 4,7 C 4,3 C 82 % 1016,6 hPa 0,0 mm 7,0 km/h (2 Bft) W 270 1,9 C 6,7 km/h (2 Bft)
28.04.2015 16:55 4,7 C 4,3 C 84 % 1016,8 hPa 0,0 mm 6,5 km/h (2 Bft) W-SW 247 2,2 C 6,5 km/h (2 Bft)
28.04.2015 17:00 4,6 C 4,4 C 82 % 1016,8 hPa 0,0 mm 6,5 km/h (2 Bft) W-SW 247 1,8 C 11,1 km/h (2 Bft)
28.04.2015 17:05 4,6 C 4,3 C 82 % 1016,8 hPa 0,0 mm 6,5 km/h (2 Bft) W-SW 247 1,8 C 3,9 km/h (1 Bft)
28.04.2015 17:10 4,6 C 4,4 C 82 % 1016,8 hPa 0,0 mm 6,5 km/h (2 Bft) W-SW 247 1,8 C 4,9 km/h (1 Bft)
28.04.2015 17:15 4,6 C 4,4 C 82 % 1017,1 hPa 0,0 mm 6,2 km/h (2 Bft) SW 225 1,8 C 9,8 km/h (2 Bft)
28.04.2015 17:20 4,6 C 4,5 C 83 % 1017,1 hPa 0,0 mm 5,4 km/h (1 Bft) S 180 2,0 C 4,9 km/h (1 Bft)
28.04.2015 17:25 4,6 C 4,5 C 83 % 1017,1 hPa 0,0 mm 5,4 km/h (1 Bft) SW 225 2,0 C 6,5 km/h (2 Bft)
28.04.2015 17:30 4,6 C 4,4 C 83 % 1017,1 hPa 0,0 mm 5,4 km/h (1 Bft) SW 225 2,0 C 7,3 km/h (2 Bft)
28.04.2015 17:35 4,6 C 4,4 C 83 % 1017,4 hPa 0,0 mm 5,7 km/h (1 Bft) W-SW 247 2,0 C 7,5 km/h (2 Bft)
28.04.2015 17:40 4,6 C 4,3 C 85 % 1017,4 hPa 0,0 mm 5,7 km/h (1 Bft) W 270 2,3 C 4,7 km/h (1 Bft)
28.04.2015 17:45 4,6 C 4,4 C 83 % 1017,4 hPa 0,0 mm 5,2 km/h (1 Bft) S 180 2,0 C 2,8 km/h (1 Bft)
28.04.2015 17:50 4,6 C 4,4 C 83 % 1017,4 hPa 0,0 mm 5,4 km/h (1 Bft) N-NW 337 2,0 C 6,2 km/h (2 Bft)
28.04.2015 17:55 4,6 C 4,4 C 83 % 1017,7 hPa 0,0 mm 5,7 km/h (1 Bft) S-SW 202 2,0 C 9,3 km/h (2 Bft)
28.04.2015 18:00 4,6 C 4,2 C 85 % 1017,7 hPa 0,0 mm 6,5 km/h (2 Bft) W-SW 247 2,3 C 5,2 km/h (1 Bft)
28.04.2015 18:05 4,4 C 4,2 C 83 % 1017,7 hPa 0,0 mm 7,0 km/h (2 Bft) SW 225 1,8 C 7,3 km/h (2 Bft)
28.04.2015 18:10 4,6 C 4,2 C 85 % 1017,7 hPa 0,0 mm 6,7 km/h (2 Bft) SW 225 2,3 C 16,1 km/h (3 Bft)
28.04.2015 18:15 4,6 C 4,4 C 83 % 1017,8 hPa 0,0 mm 5,4 km/h (1 Bft) SW 225 2,0 C 6,0 km/h (2 Bft)
28.04.2015 18:20 4,6 C 4,4 C 83 % 1017,8 hPa 0,0 mm 6,0 km/h (2 Bft) SW 225 2,0 C 4,4 km/h (1 Bft)
28.04.2015 18:25 4,7 C 4,2 C 85 % 1017,8 hPa 0,0 mm 7,5 km/h (2 Bft) SW 225 2,4 C 6,0 km/h (2 Bft)
28.04.2015 18:30 4,6 C 4,3 C 83 % 1017,8 hPa 0,0 mm 7,3 km/h (2 Bft) SW 225 2,0 C 3,9 km/h (1 Bft)
28.04.2015 18:35 4,6 C 4,5 C 83 % 1017,8 hPa 0,0 mm 6,2 km/h (2 Bft) SW 225 2,0 C 7,0 km/h (2 Bft)
28.04.2015 18:40 4,6 C 4,6 C 82 % 1017,8 hPa 0,0 mm 5,4 km/h (1 Bft) O-SO 112 1,8 C 14,0 km/h (3 Bft)
28.04.2015 18:45 4,7 C 4,6 C 82 % 1017,8 hPa 0,0 mm 6,7 km/h (2 Bft) NW 315 1,9 C 4,1 km/h (1 Bft)
28.04.2015 18:50 4,7 C 4,8 C 82 % 1017,8 hPa 0,0 mm 6,2 km/h (2 Bft) S-SW 202 1,9 C 7,8 km/h (2 Bft)
28.04.2015 18:55 4,9 C 5,0 C 82 % 1017,9 hPa 0,0 mm 6,0 km/h (2 Bft) W-SW 247 2,1 C 4,4 km/h (1 Bft)
28.04.2015 19:00 5,1 C 5,4 C 81 % 1017,9 hPa 0,0 mm 5,2 km/h (1 Bft) W-SW 247 2,1 C 4,7 km/h (1 Bft)
28.04.2015 19:05 5,2 C 5,7 C 81 % 1017,9 hPa 0,0 mm 3,6 km/h (1 Bft) SW 225 2,2 C 11,7 km/h (2 Bft)
28.04.2015 19:10 5,2 C 5,8 C 81 % 1017,9 hPa 0,0 mm 4,7 km/h (1 Bft) SW 225 2,2 C 7,3 km/h (2 Bft)
28.04.2015 19:15 5,2 C 5,4 C 80 % 1018,1 hPa 0,0 mm 6,5 km/h (2 Bft) SW 225 2,0 C 7,3 km/h (2 Bft)
28.04.2015 19:20 5,2 C 5,6 C 80 % 1018,1 hPa 0,0 mm 5,2 km/h (1 Bft) W 270 2,0 C 5,2 km/h (1 Bft)
28.04.2015 19:25 5,2 C 5,3 C 79 % 1018,1 hPa 0,0 mm 5,7 km/h (1 Bft) W-SW 247 1,9 C 13,2 km/h (3 Bft)
28.04.2015 19:30 5,2 C 5,0 C 79 % 1018,1 hPa 0,0 mm 7,8 km/h (2 Bft) S 180 1,9 C 12,4 km/h (3 Bft)
28.04.2015 19:35 5,1 C 4,9 C 79 % 1018,1 hPa 0,0 mm 8,0 km/h (2 Bft) S 180 1,8 C 8,8 km/h (2 Bft)
28.04.2015 19:40 5,1 C 4,9 C 79 % 1018,1 hPa 0,0 mm 7,3 km/h (2 Bft) N 360 1,8 C 7,8 km/h (2 Bft)
28.04.2015 19:45 5,0 C 4,8 C 79 % 1018,1 hPa 0,0 mm 6,7 km/h (2 Bft) SW 225 1,7 C 16,3 km/h (3 Bft)
28.04.2015 19:50 5,0 C 4,6 C 78 % 1018,1 hPa 0,0 mm 7,5 km/h (2 Bft) W-SW 247 1,5 C 6,2 km/h (2 Bft)
28.04.2015 19:55 4,9 C 4,6 C 78 % 1018,6 hPa 0,0 mm 7,5 km/h (2 Bft) SW 225 1,4 C 3,6 km/h (1 Bft)
28.04.2015 20:00 4,8 C 4,6 C 78 % 1018,6 hPa 0,0 mm 6,5 km/h (2 Bft) SW 225 1,3 C 10,6 km/h (2 Bft)
28.04.2015 20:05 4,7 C 4,5 C 78 % 1018,6 hPa 0,0 mm 6,2 km/h (2 Bft) S 180 1,2 C 11,1 km/h (2 Bft)
28.04.2015 20:10 4,7 C 4,4 C 78 % 1018,6 hPa 0,0 mm 6,7 km/h (2 Bft) W-SW 247 1,2 C 6,5 km/h (2 Bft)
28.04.2015 20:15 4,6 C 4,3 C 78 % 1018,8 hPa 0,0 mm 6,2 km/h (2 Bft) W-SW 247 1,1 C 0,0 km/h (0 Bft)
28.04.2015 20:20 4,6 C 4,4 C 78 % 1018,8 hPa 0,0 mm 4,1 km/h (1 Bft) S-SW 202 1,1 C 3,9 km/h (1 Bft)
28.04.2015 20:25 4,5 C 4,3 C 79 % 1018,8 hPa 0,0 mm 3,1 km/h (1 Bft) SW 225 1,2 C 5,7 km/h (1 Bft)
28.04.2015 20:30 4,5 C 4,3 C 79 % 1018,8 hPa 0,0 mm 2,8 km/h (1 Bft) SW 225 1,2 C 2,8 km/h (1 Bft)
28.04.2015 20:35 4,4 C 4,2 C 79 % 1018,9 hPa 0,0 mm 3,4 km/h (1 Bft) SW 225 1,1 C 7,5 km/h (2 Bft)
28.04.2015 20:40 4,3 C 4,1 C 79 % 1018,9 hPa 0,0 mm 3,9 km/h (1 Bft) S 180 1,0 C 9,1 km/h (2 Bft)
28.04.2015 20:45 4,2 C 3,9 C 79 % 1018,9 hPa 0,0 mm 5,2 km/h (1 Bft) SW 225 0,9 C 8,3 km/h (2 Bft)
28.04.2015 20:50 4,1 C 3,7 C 79 % 1018,9 hPa 0,0 mm 6,0 km/h (2 Bft) SO 135 0,8 C 8,5 km/h (2 Bft)
28.04.2015 20:55 4,0 C 3,6 C 79 % 1019,2 hPa 0,0 mm 6,2 km/h (2 Bft) SW 225 0,7 C 11,4 km/h (2 Bft)
28.04.2015 21:00 3,9 C 3,5 C 79 % 1019,2 hPa 0,0 mm 6,5 km/h (2 Bft) SW 225 0,6 C 12,2 km/h (2 Bft)
28.04.2015 21:05 3,8 C 3,3 C 80 % 1019,2 hPa 0,0 mm 6,5 km/h (2 Bft) S 180 0,7 C 0,0 km/h (0 Bft)
28.04.2015 21:10 3,7 C 3,2 C 80 % 1019,2 hPa 0,0 mm 6,7 km/h (2 Bft) SW 225 0,6 C 0,0 km/h (0 Bft)
28.04.2015 21:15 3,3 C 2,9 C 80 % 1019,4 hPa 0,0 mm 5,7 km/h (1 Bft) O-SO 112 0,2 C 6,2 km/h (2 Bft)
28.04.2015 21:20 3,1 C 2,9 C 80 % 1019,4 hPa 0,0 mm 3,9 km/h (1 Bft) W-SW 247 -0,0 C 0,0 km/h (0 Bft)
28.04.2015 21:25 3,1 C 2,7 C 81 % 1019,4 hPa 0,0 mm 4,7 km/h (1 Bft) S 180 0,2 C 9,1 km/h (2 Bft)
28.04.2015 21:30 3,0 C 2,5 C 81 % 1019,4 hPa 0,0 mm 5,4 km/h (1 Bft) S-SW 202 0,1 C 8,8 km/h (2 Bft)
28.04.2015 21:35 3,0 C 2,4 C 82 % 1019,5 hPa 0,0 mm 6,2 km/h (2 Bft) SO 135 0,2 C 4,1 km/h (1 Bft)
28.04.2015 21:40 2,9 C 2,5 C 83 % 1019,5 hPa 0,0 mm 4,9 km/h (1 Bft) SW 225 0,3 C 3,6 km/h (1 Bft)
28.04.2015 21:45 3,0 C 2,5 C 83 % 1019,5 hPa 0,0 mm 5,4 km/h (1 Bft) SW 225 0,4 C 7,0 km/h (2 Bft)
28.04.2015 21:50 3,0 C 2,6 C 83 % 1019,5 hPa 0,0 mm 5,2 km/h (1 Bft) S 180 0,4 C 3,6 km/h (1 Bft)
28.04.2015 21:55 3,0 C 2,6 C 83 % 1019,7 hPa 0,0 mm 5,2 km/h (1 Bft) S 180 0,4 C 10,4 km/h (2 Bft)
28.04.2015 22:00 2,9 C 2,5 C 85 % 1019,7 hPa 0,0 mm 5,2 km/h (1 Bft) SO 135 0,6 C 6,5 km/h (2 Bft)
28.04.2015 22:05 2,6 C 2,3 C 85 % 1019,7 hPa 0,0 mm 2,3 km/h (1 Bft) O-SO 112 0,3 C 0,0 km/h (0 Bft)
28.04.2015 22:10 2,5 C 2,2 C 86 % 1019,7 hPa 0,0 mm 1,0 km/h (0 Bft) W-SW 247 0,4 C 8,5 km/h (2 Bft)
28.04.2015 22:15 2,6 C 2,2 C 86 % 1019,8 hPa 0,0 mm 0,8 km/h (0 Bft) SO 135 0,5 C 0,0 km/h (0 Bft)
28.04.2015 22:20 2,5 C 2,1 C 86 % 1019,8 hPa 0,0 mm 0,5 km/h (0 Bft) SO 135 0,4 C 0,0 km/h (0 Bft)
28.04.2015 22:25 2,3 C 1,9 C 86 % 1019,8 hPa 0,0 mm 0,0 km/h (0 Bft) SO 135 0,2 C 0,0 km/h (0 Bft)
28.04.2015 22:30 2,2 C 1,8 C 86 % 1019,8 hPa 0,0 mm 0,0 km/h (0 Bft) S-SO 157 0,1 C 0,0 km/h (0 Bft)
28.04.2015 22:35 2,1 C 1,7 C 86 % 1019,8 hPa 0,0 mm 0,0 km/h (0 Bft) O-SO 112 0,0 C 0,0 km/h (0 Bft)
28.04.2015 22:40 2,2 C 1,7 C 87 % 1019,8 hPa 0,0 mm 0,0 km/h (0 Bft) O-SO 112 0,3 C 0,0 km/h (0 Bft)
28.04.2015 22:45 2,0 C 1,6 C 87 % 1019,8 hPa 0,0 mm 0,0 km/h (0 Bft) NO 45 0,1 C 0,0 km/h (0 Bft)
28.04.2015 22:50 1,9 C 1,5 C 87 % 1019,8 hPa 0,0 mm 0,0 km/h (0 Bft) NO 45 -0,0 C 0,0 km/h (0 Bft)
28.04.2015 22:55 2,0 C 1,6 C 87 % 1019,9 hPa 0,0 mm 0,0 km/h (0 Bft) O-SO 112 0,1 C 0,0 km/h (0 Bft)
28.04.2015 23:00 2,1 C 1,8 C 83 % 1019,9 hPa 0,0 mm 0,0 km/h (0 Bft) O-SO 112 -0,5 C 0,0 km/h (0 Bft)
28.04.2015 23:05 2,2 C 1,8 C 87 % 1019,9 hPa 0,0 mm 0,3 km/h (0 Bft) N-NW 337 0,3 C 0,0 km/h (0 Bft)
28.04.2015 23:10 2,2 C 1,9 C 84 % 1019,9 hPa 0,0 mm 0,5 km/h (0 Bft) SO 135 -0,2 C 0,0 km/h (0 Bft)
28.04.2015 23:15 2,3 C 2,1 C 84 % 1019,9 hPa 0,0 mm 0,5 km/h (0 Bft) O-SO 112 -0,1 C 0,0 km/h (0 Bft)
28.04.2015 23:20 2,3 C 2,1 C 84 % 1019,9 hPa 0,0 mm 0,3 km/h (0 Bft) SO 135 -0,1 C 0,0 km/h (0 Bft)
28.04.2015 23:25 2,4 C 2,1 C 88 % 1019,9 hPa 0,0 mm 0,8 km/h (0 Bft) O-SO 112 0,6 C 0,0 km/h (0 Bft)
28.04.2015 23:30 2,3 C 2,0 C 84 % 1019,9 hPa 0,0 mm 0,5 km/h (0 Bft) O-SO 112 -0,1 C 0,0 km/h (0 Bft)
28.04.2015 23:35 2,4 C 2,2 C 84 % 1019,8 hPa 0,0 mm 0,0 km/h (0 Bft) O-SO 112 -0,0 C 0,0 km/h (0 Bft)
28.04.2015 23:40 2,4 C 2,2 C 85 % 1019,8 hPa 0,0 mm 0,5 km/h (0 Bft) SO 135 0,1 C 0,0 km/h (0 Bft)
28.04.2015 23:45 2,5 C 2,2 C 88 % 1019,8 hPa 0,0 mm 0,5 km/h (0 Bft) N-NO 22 0,7 C 0,0 km/h (0 Bft)
28.04.2015 23:50 2,5 C 2,2 C 88 % 1019,8 hPa 0,0 mm 0,0 km/h (0 Bft) O-NO 67 0,7 C 0,0 km/h (0 Bft)
28.04.2015 23:55 2,4 C 2,1 C 85 % 1019,8 hPa 0,0 mm 0,0 km/h (0 Bft) O-NO 67 0,1 C 0,0 km/h (0 Bft)
_ Min-Zeit 22:50 22:50 00:10 00:30 - 23:55 - - 23:00 23:55
Minimum _ 1,9 C 1,5 C 75 % 1002,0 hPa - 0,0 km/h (0 Bft) - - -0,5 C 0,0 km/h (0 Bft)
_ Max-Zeit 00:30 00:00 07:45 23:30 02:55 08:40 - - 00:30 10:45
Maximum _ 12,6 C 12,6 C 90 % 1019,9 hPa 2,1 mm 19,2 km/h
W-NW (3 Bft)
- - 8,5 C 39,9 km/h
W (6 Bft)
Durchschnitt _ 6,6 C 6,3 C 84 % 1011,2 hPa #24,7 mm 7,1 km/h (2 Bft) W-SW - 4,0 C 9,8 km/h (2 Bft)